Regional Weather Roundup
Issued by NWS

Home | Current Version | Previous Version | Graphics & Text | Print | Product List | Glossary Off
Versions: 1 2 3 4 5 6 7 8 9 10 11 12 13 14 15 16 17 18 19 20 21 22 23 24 25 26 27 28 29 30 31 32 33 34 35 36 37 38 39 40 41 42 43 44 45 46 47 48 49 50

000
ASUS43 KLSX 250307
RWRMO

WEATHER SUMMARY FOR MISSOURI
NATIONAL WEATHER SERVICE SPRINGFIELD MO
1000 PM CDT TUE APR 24 2018

NOTE: "FAIR" INDICATES FEW OR NO CLOUDS BELOW 12,000 FEET WITH NO
       SIGNIFICANT WEATHER AND/OR OBSTRUCTIONS TO VISIBILITY.
       CURRENT SKY AND/OR WEATHER CONDITIONS ARE NOT AVAILABLE FOR
       CHILLICOTHE AND FARMINGTON.

MOZ001>031-035>038-043-044-053-054-250400-
...NORTHERN AND WESTERN MISSOURI...

CITY           SKY/WX    TMP DP  RH WIND       PRES   REMARKS
KANSAS CTY INT CLOUDY    60  45  57 NW22G28   30.13S
KANSAS C DTWN  CLOUDY    63  45  51 NW16G26   30.12R
LEE`S SUMMIT   CLOUDY    62  46  55 MISG      30.12R
ST JOSEPH      CLOUDY    59  48  67 NW24G37   30.14R
CHILLICOTHE      N/A     59  42  53 CALM      30.07R
KIRKSVILLE     CLOUDY    63  39  41 N9        30.07R

$$
MOZ066>068-077>081-088>096-101>105-250400-
...SOUTHWEST MISSOURI...

CITY           SKY/WX    TMP DP  RH WIND       PRES   REMARKS
SPRINGFIELD    CLOUDY    57  40  52 W3        30.07R
JOPLIN         CLOUDY    61  42  49 CALM      30.09R
BRANSON        PTCLDY    59  41  51 CALM      30.09R

$$
MOZ032>034-039>042-045>050-055>058-069>072-250400-
...CENTRAL MISSOURI...

CITY           SKY/WX    TMP DP  RH WIND       PRES   REMARKS
COLUMBIA       PTCLDY    63  34  33 NW5       30.04R
JEFFERSON CITY CLOUDY    60  43  53 W3        30.03R
ROLLA          CLEAR     55  45  68 CALM      30.05R
SEDALIA        PTCLDY    65  38  36 NW5       30.07R
WARRENSBURG    CLOUDY    64  41  42 NW13G21   30.08R
OSAGE BEACH    CLEAR     58  46  64 CALM      30.06R

$$
MOZ051-052-059>065-250400-
...EAST CENTRAL MISSOURI...

CITY           SKY/WX    TMP DP  RH WIND       PRES   REMARKS
ST LOUIS INTL  PTCLDY    59  47  64 SW3       30.00R
SPIRIT OF STL  CLEAR     55  48  77 W3        30.00R
ST CHARLES     CLEAR     55  42  61 W6        29.99R

$$
MOZ072>076-082>087-097>100-106>115-250400-
...SOUTH CENTRAL AND SOUTHEAST MISSOURI...

CITY           SKY/WX    TMP DP  RH WIND       PRES   REMARKS
CAPE GIRARDEAU FAIR      53  50  89 CALM      30.01S
FARMINGTON     CLOUDY    53  51  93 CALM      30.03R
POPLAR BLUFF   FAIR      56  55  97 CALM      30.02R
WEST PLAINS    CLEAR     59  46  62 NW5       30.07R

$$




USA.gov is the U.S. government's official web portal to all federal, state and local government web resources and services.